Back to catalog

FREGAT DEB

LostUNKNOWN
NORAD 45945·DEBRIS·🇷🇺 Russia

Launched Jul 18, 2011 from Baikonur Cosmodrome

Loading…

Next Passes (next 24 hours)

TLE

StaleSource: Space-Track

Epoch: Nov 4, 2022, 17:36 UTC

1 45945U 11037FA  22308.73344442  .00136568  00000-0  00000-0 0  9994
2 45945  51.5711  73.3059 1506516 253.9911  89.0269 10.53183185 84988

Track FREGAT DEB in real time with AllMySat

Download on the App Store